Temp
72 75 73 73 60 56 51 56 60 61 60 65 69 67 62 62 60 52 71 76 75 73 74 75 74 75 75 75 75 75 75 76 76 76 76 76 76 76 76 75 75 76 77 76 75 74 74 73 73
70 77 74 65 55 48 49 56 59 63 66 69 70 67 64 59 68 68 69 77 76 75 75 73 73 74 75 74 74 75 75 75 76 76 76 76 76 76 76 76 75 75 76 75 75 74 73 73 73
77 78 66 59 53 50 52 58 61 65 69 68 65 68 64 63 68 69 73 78 76 78 77 73 72 74 74 74 74 74 75 75 75 75 75 76 76 76 75 75 75 75 76 75 74 73 73 73 72
75 72 67 56 52 57 59 61 65 65 66 71 66 60 66 69 70 73 77 78 75 73 74 71 73 74 74 74 74 75 75 75 75 75 75 76 76 75 75 75 75 75 74 75 73 72 72 72 72
70 64 56 52 55 59 61 66 66 64 64 66 66 59 61 70 75 75 75 77 74 70 72 72 72 73 73 74 74 74 74 75 75 75 75 75 75 75 74 74 74 74 74 74 72 71 71 71 71
63 61 51 48 53 61 63 66 67 64 65 65 63 61 61 70 72 72 76 74 75 71 72 72 69 70 72 73 73 73 73 74 74 74 74 74 75 74 74 74 74 74 74 73 72 71 70 70 70
58 54 49 48 52 56 63 66 61 63 64 61 68 59 62 66 71 74 73 74 74 74 72 70 70 69 67 69 70 71 72 72 73 73 73 72 72 72 73 73 74 74 74 73 72 71 70 70 70
60 56 50 49 54 55 64 64 67 65 60 68 69 58 56 65 72 73 73 73 72 73 72 70 69 69 68 68 66 67 69 70 70 70 69 68 68 69 70 69 71 73 73 73 72 70 70 70 70
63 51 47 52 55 58 64 62 64 66 65 65 67 65 67 70 72 69 68 69 69 72 72 71 69 69 69 69 69 65 66 67 67 66 65 65 65 66 67 66 68 71 72 72 71 70 69 68 67
55 47 53 57 56 59 63 63 64 62 61 60 62 66 69 69 66 66 65 66 67 68 69 71 69 69 70 76 72 69 69 66 66 66 66 65 65 65 68 64 64 67 68 70 71 70 68 64 62
55 50 57 58 62 63 64 62 63 61 56 62 63 65 66 66 68 67 66 66 66 67 69 71 70 70 69 70 70 69 69 68 68 68 66 67 68 64 63 62 63 62 61 63 65 64 63 62 61
51 59 59 60 61 62 60 63 60 60 61 66 66 67 66 64 63 64 64 65 66 66 69 70 70 70 70 69 68 71 70 69 68 69 70 69 67 67 64 62 62 61 61 61 60 60 62 62 62
52 56 60 60 60 59 61 57 56 57 61 64 68 68 65 62 64 65 66 66 66 66 67 69 69 69 71 68 67 67 68 69 70 70 70 69 68 66 68 67 65 62 62 61 60 61 61 61 62
55 57 57 58 57 58 56 54 57 59 63 63 62 62 60 63 66 65 65 68 66 68 67 70 70 69 70 69 68 67 66 67 69 69 68 69 68 67 67 67 67 67 66 65 63 61 61 61 62
56 50 54 53 55 54 57 51 51 59 62 61 61 59 62 65 66 67 69 68 69 68 68 68 70 70 69 68 68 67 67 69 65 67 70 69 69 67 68 66 66 67 67 68 67 66 65 64 65
49 47 39 52 55 55 54 42 54 59 59 58 59 57 60 63 67 66 67 65 64 63 63 65 67 65 66 66 67 67 67 66 65 68 69 69 69 68 67 66 66 66 66 66 65 64 63 63 64
43 35 39 46 54 53 49 42 54 58 57 55 54 57 59 60 63 61 61 61 61 59 60 60 61 61 61 63 65 65 66 65 66 66 68 69 68 68 67 66 66 66 64 64 64 63 63 62 62
38 37 42 41 49 49 46 45 52 55 57 56 55 57 57 60 61 59 58 58 57 57 57 58 59 59 59 60 61 62 63 64 65 66 67 68 67 66 65 65 65 64 63 62 62 62 62 62 61
47 42 40 43 49 46 44 45 49 53 53 52 53 54 57 60 56 56 56 54 53 53 54 54 55 55 56 55 56 58 59 60 61 62 64 65 64 63 62 63 63 63 62 62 62 61 60 60 60
45 42 41 46 49 47 44 44 50 53 55 56 56 57 59 56 52 54 52 50 50 49 50 51 53 54 55 54 56 59 59 61 62 62 62 60 58 57 58 57 58 58 59 60 60 59 59 59 60
43 41 40 40 46 46 41 38 44 52 55 58 58 58 57 55 51 48 48 46 46 46 47 50 50 51 52 53 57 62 62 60 60 58 57 55 55 54 54 54 55 55 55 54 54 55 55 55 58
39 47 46 44 39 32 42 28 40 48 51 54 56 52 51 50 49 48 46 44 44 44 46 48 49 49 52 51 53 55 56 54 54 55 55 53 52 50 50 50 50 49 49 49 49 51 50 51 52
44 48 46 44 39 35 35 30 37 46 47 50 50 50 48 48 46 45 44 46 45 44 43 44 46 47 47 48 49 49 50 51 51 50 49 48 48 47 47 47 47 47 47 47 47 47 48 48 48
50 45 45 43 37 23 35 33 34 41 48 49 48 48 47 45 44 45 45 45 43 43 42 43 44 44 45 45 45 45 44 44 43 43 43 43 44 44 44 45 45 45 45 45 45 46 46 45 46
46 39 28 26 26 25 38 34 39 48 50 49 48 45 44 44 43 43 41 40 41 40 41 43 42 41 42 42 42 41 42 41 40 40 40 39 40 40 40 41 42 43 44 45 45 45 45 44 42
40 39 27 20 23 26 34 30 40 49 48 51 51 47 45 43 44 42 41 40 40 40 39 40 40 39 40 40 39 39 40 39 39 38 38 38 38 38 39 40 41 41 43 43 44 42 43 42 41
39 37 42 31 24 25 28 36 46 49 45 45 44 44 42 42 42 41 40 39 38 38 38 38 38 38 38 38 38 37 37 37 36 37 37 36 37 41 38 38 39 40 40 40 41 39 39 40 40
42 45 31 28 16 17 26 28 34 41 45 43 42 42 42 42 41 40 39 38 38 38 37 37 37 37 37 37 37 37 36 36 36 36 35 35 36 37 37 37 38 38 38 38 39 38 38 38 38
39 37 39 37 29 23 21 28 43 42 44 45 44 45 42 41 40 40 39 38 38 37 36 35 35 35 35 35 35 35 34 35 35 34 34 34 35 35 35 36 37 36 35 36 35 36 36 36 37
44 38 38 26 26 27 27 27 47 46 46 47 46 46 43 43 42 41 39 37 36 35 35 34 33 33 34 34 34 34 34 33 32 32 32 33 33 34 34 35 34 33 33 33 33 32 33 34 34
MSLP
1011.87 1011.20 1011.06 1011.37 1013.18 1014.20 1014.86 1015.54 1014.96 1015.25 1015.16 1015.04 1015.10 1015.57 1016.78 1017.16 1017.63 1018.64 1018.27 1017.95 1018.35 1018.88 1019.17 1019.35 1019.60 1019.80 1019.97 1020.07 1020.20 1020.26 1020.35 1020.41 1020.47 1020.53 1020.61 1020.64 1020.70 1020.79 1020.86 1020.98 1021.07 1021.11 1021.12 1021.21 1021.31 1021.43 1021.47 1021.49 1021.48
1011.87 1011.24 1011.29 1012.25 1013.72 1015.01 1015.66 1015.30 1015.26 1014.96 1014.85 1014.94 1015.63 1016.00 1016.46 1017.66 1017.57 1018.05 1018.04 1017.94 1018.07 1018.58 1019.03 1019.31 1019.61 1019.83 1019.99 1020.09 1020.20 1020.29 1020.34 1020.40 1020.46 1020.55 1020.66 1020.75 1020.78 1020.86 1021.00 1021.11 1021.25 1021.30 1021.25 1021.40 1021.55 1021.67 1021.66 1021.61 1021.66
1011.68 1011.39 1012.54 1013.09 1014.18 1014.86 1015.34 1015.14 1014.98 1014.84 1014.62 1014.94 1015.48 1015.82 1016.78 1017.72 1017.69 1017.91 1017.83 1017.63 1018.03 1018.31 1018.83 1019.19 1019.48 1019.76 1019.91 1020.05 1020.16 1020.25 1020.39 1020.43 1020.46 1020.49 1020.60 1020.69 1020.74 1020.77 1020.96 1021.14 1021.25 1021.33 1021.31 1021.49 1021.75 1021.85 1021.76 1021.64 1021.89
1012.04 1012.00 1012.85 1013.58 1014.53 1014.35 1014.45 1014.79 1014.56 1014.84 1014.75 1014.89 1015.67 1016.91 1017.31 1017.43 1017.41 1017.53 1017.61 1017.53 1018.01 1018.45 1018.78 1019.23 1019.40 1019.64 1019.87 1020.05 1020.16 1020.26 1020.35 1020.44 1020.52 1020.50 1020.43 1020.56 1020.62 1020.71 1020.89 1021.08 1021.22 1021.33 1021.47 1021.57 1021.87 1021.98 1022.00 1021.98 1021.98
1012.40 1013.27 1013.87 1014.56 1014.76 1014.54 1014.29 1014.06 1014.26 1014.86 1014.88 1015.36 1015.56 1017.22 1017.59 1017.51 1017.37 1017.53 1017.58 1017.55 1017.99 1018.59 1018.79 1019.05 1019.27 1019.53 1019.79 1019.99 1020.15 1020.31 1020.43 1020.49 1020.57 1020.61 1020.56 1020.64 1020.66 1020.74 1020.82 1020.95 1021.12 1021.27 1021.39 1021.68 1021.91 1022.00 1022.02 1022.01 1022.04
1013.72 1014.13 1014.84 1015.19 1014.88 1014.41 1014.09 1013.78 1014.19 1014.55 1014.90 1015.62 1016.13 1016.88 1017.80 1017.64 1017.60 1017.71 1017.62 1017.73 1017.73 1018.42 1018.70 1018.88 1019.17 1019.35 1019.62 1019.82 1020.01 1020.18 1020.31 1020.43 1020.57 1020.67 1020.73 1020.75 1020.77 1020.76 1020.78 1020.86 1020.87 1021.00 1021.20 1021.43 1021.68 1021.85 1022.02 1022.10 1022.14
1014.54 1015.24 1015.45 1015.31 1015.26 1014.65 1014.07 1013.77 1014.39 1014.70 1014.98 1015.31 1015.69 1017.07 1017.87 1017.75 1017.61 1017.55 1017.70 1017.74 1017.82 1018.10 1018.55 1018.84 1018.99 1019.30 1019.54 1019.75 1019.86 1020.00 1020.13 1020.24 1020.37 1020.51 1020.64 1020.77 1020.82 1020.82 1020.79 1020.85 1020.86 1020.89 1021.02 1021.24 1021.46 1021.67 1021.80 1021.87 1021.95
1014.88 1015.44 1015.62 1015.39 1015.36 1014.90 1014.26 1014.14 1014.64 1014.81 1015.13 1014.93 1015.57 1016.91 1017.94 1017.73 1017.45 1017.52 1017.66 1017.75 1017.98 1017.97 1018.26 1018.65 1018.83 1019.09 1019.37 1019.56 1019.71 1019.85 1020.03 1020.16 1020.22 1020.33 1020.49 1020.60 1020.73 1020.78 1020.82 1020.85 1020.90 1020.92 1020.96 1021.10 1021.28 1021.42 1021.55 1021.60 1021.67
1014.90 1015.82 1016.00 1015.35 1015.38 1014.88 1014.35 1014.44 1014.57 1014.69 1015.15 1015.39 1015.76 1016.29 1016.82 1017.03 1017.25 1017.51 1017.69 1017.92 1017.98 1017.96 1017.96 1018.10 1018.49 1018.75 1018.93 1019.19 1019.36 1019.72 1019.92 1020.11 1020.24 1020.29 1020.39 1020.56 1020.69 1020.71 1020.72 1020.76 1020.77 1020.81 1020.83 1020.83 1020.97 1021.10 1021.21 1021.31 1021.44
1015.57 1016.20 1015.69 1015.33 1014.89 1014.69 1014.61 1014.54 1014.81 1015.21 1015.58 1015.97 1016.36 1016.62 1016.74 1016.91 1017.32 1017.51 1017.60 1017.73 1017.82 1017.89 1017.80 1017.75 1018.10 1018.37 1018.52 1018.47 1018.94 1019.43 1019.69 1019.92 1020.09 1020.18 1020.26 1020.33 1020.41 1020.45 1020.49 1020.55 1020.63 1020.61 1020.70 1020.74 1020.78 1020.84 1020.94 1021.10 1021.23
1015.74 1015.99 1015.63 1015.63 1015.00 1014.87 1014.88 1015.18 1015.19 1015.51 1016.03 1015.88 1016.33 1016.61 1016.90 1017.10 1017.12 1017.18 1017.10 1017.15 1017.33 1017.37 1017.46 1017.44 1017.57 1017.79 1018.11 1018.26 1018.56 1019.08 1019.31 1019.55 1019.72 1019.84 1020.01 1020.05 1020.06 1020.18 1020.38 1020.46 1020.50 1020.65 1020.69 1020.80 1020.75 1020.78 1020.85 1020.95 1021.05
1016.17 1015.91 1015.91 1015.95 1015.73 1015.45 1015.57 1015.42 1015.58 1015.71 1015.99 1015.81 1016.05 1016.35 1016.59 1016.78 1016.90 1016.96 1016.90 1016.86 1016.96 1016.96 1017.08 1017.27 1017.38 1017.47 1017.62 1017.93 1018.17 1018.31 1018.82 1019.09 1019.30 1019.36 1019.50 1019.68 1019.85 1019.93 1020.10 1020.28 1020.39 1020.52 1020.50 1020.64 1020.69 1020.75 1020.69 1020.73 1020.73
1016.53 1016.40 1016.38 1016.33 1016.26 1016.45 1016.23 1016.28 1016.26 1016.05 1015.80 1015.98 1015.89 1016.20 1016.53 1016.63 1016.82 1016.78 1016.66 1016.75 1016.83 1016.82 1016.83 1016.97 1017.16 1017.30 1017.19 1017.58 1017.83 1018.04 1018.24 1018.51 1018.69 1018.92 1019.04 1019.26 1019.39 1019.53 1019.52 1019.76 1019.93 1020.13 1020.22 1020.37 1020.46 1020.49 1020.55 1020.56 1020.56
1016.85 1016.85 1016.89 1016.67 1016.72 1016.86 1017.04 1017.01 1016.92 1016.28 1015.82 1015.90 1016.35 1016.52 1016.67 1016.74 1016.79 1016.70 1016.75 1016.68 1016.80 1016.80 1016.88 1016.81 1016.98 1017.01 1017.10 1017.23 1017.50 1017.74 1017.92 1018.12 1018.30 1018.56 1018.78 1018.83 1019.08 1019.21 1019.29 1019.38 1019.48 1019.59 1019.69 1019.77 1020.01 1020.17 1020.18 1020.16 1020.18
1017.19 1017.66 1017.52 1017.38 1017.22 1017.41 1017.54 1017.77 1017.06 1016.79 1016.49 1016.49 1016.53 1016.68 1016.83 1016.84 1016.72 1016.75 1016.57 1016.66 1016.65 1016.88 1017.13 1017.28 1017.07 1016.76 1017.02 1017.13 1017.23 1017.44 1017.50 1017.60 1017.91 1017.99 1018.18 1018.53 1018.77 1019.00 1018.99 1019.12 1019.23 1019.23 1019.28 1019.34 1019.52 1019.60 1019.66 1019.74 1019.67
1018.08 1018.39 1018.70 1017.77 1017.59 1017.94 1018.09 1017.94 1017.11 1016.73 1016.73 1016.89 1016.92 1017.10 1016.98 1016.97 1016.76 1016.68 1016.67 1017.16 1017.46 1017.41 1017.51 1017.63 1017.63 1017.56 1017.43 1017.31 1017.10 1017.11 1017.25 1017.34 1017.45 1017.62 1017.67 1018.05 1018.34 1018.55 1018.72 1018.88 1018.98 1019.11 1019.19 1019.21 1019.23 1019.37 1019.47 1019.52 1019.47
1019.00 1019.14 1019.10 1018.37 1017.81 1018.13 1018.48 1018.45 1017.58 1016.81 1016.89 1017.24 1017.28 1017.32 1017.19 1017.04 1016.97 1017.65 1017.59 1017.78 1017.99 1018.11 1018.15 1018.07 1018.08 1018.17 1017.97 1017.58 1017.18 1016.96 1016.96 1017.06 1017.18 1017.31 1017.31 1017.50 1017.81 1018.09 1018.35 1018.51 1018.70 1018.89 1019.03 1019.00 1019.09 1019.17 1019.27 1019.34 1019.27
1019.16 1019.35 1018.94 1018.63 1018.32 1018.38 1018.70 1018.53 1018.07 1017.58 1017.47 1017.39 1017.28 1017.26 1017.33 1017.29 1017.45 1018.15 1018.30 1018.46 1018.65 1018.78 1018.87 1018.92 1018.82 1018.77 1018.42 1017.97 1017.38 1017.12 1017.12 1017.01 1017.31 1017.31 1017.36 1017.55 1017.92 1018.18 1018.33 1018.38 1018.44 1018.74 1018.96 1019.02 1019.05 1019.09 1019.09 1019.18 1019.11
1018.82 1018.97 1018.93 1018.60 1018.43 1018.66 1018.84 1018.62 1018.38 1017.66 1017.62 1017.47 1017.36 1017.20 1017.32 1017.51 1018.40 1018.76 1019.09 1019.37 1019.46 1019.62 1019.66 1019.70 1019.55 1019.40 1019.02 1018.58 1018.23 1017.76 1017.78 1018.05 1018.27 1018.24 1018.33 1018.33 1018.58 1018.72 1018.76 1018.73 1018.59 1018.68 1018.91 1018.96 1019.03 1019.00 1018.92 1018.92 1018.76
1018.85 1018.94 1018.90 1018.77 1018.74 1018.99 1019.05 1018.38 1017.89 1017.12 1016.48 1016.27 1016.53 1016.79 1017.12 1017.99 1018.91 1019.59 1019.80 1020.00 1020.18 1020.42 1020.51 1020.45 1020.26 1019.95 1019.60 1019.16 1018.56 1018.13 1018.18 1018.55 1018.72 1018.89 1019.13 1019.48 1019.68 1019.82 1019.74 1019.80 1019.78 1019.65 1019.40 1019.48 1019.45 1019.33 1019.01 1018.86 1018.78
1018.96 1019.03 1019.09 1019.41 1019.36 1019.33 1019.53 1018.62 1017.18 1015.74 1015.38 1015.65 1015.94 1016.31 1016.80 1017.97 1019.27 1020.08 1020.56 1020.95 1021.00 1021.26 1021.40 1021.23 1020.88 1020.51 1020.10 1019.36 1018.59 1018.27 1018.33 1018.76 1019.17 1019.61 1020.01 1020.45 1020.54 1020.72 1020.69 1020.57 1020.56 1020.40 1020.25 1020.37 1020.23 1020.06 1019.80 1019.54 1019.06
1019.20 1019.08 1019.31 1019.74 1020.33 1020.60 1020.18 1019.62 1017.39 1016.05 1015.57 1015.37 1015.87 1016.97 1017.99 1018.80 1020.05 1020.59 1020.91 1021.43 1021.88 1022.13 1021.95 1021.76 1021.51 1021.26 1020.89 1020.20 1019.49 1019.12 1019.32 1019.73 1020.42 1020.63 1020.95 1021.11 1021.24 1021.45 1021.45 1021.33 1021.35 1021.25 1021.09 1020.95 1020.76 1020.59 1020.30 1020.00 1019.82
1019.35 1019.17 1019.57 1020.22 1020.95 1021.33 1020.77 1020.71 1017.37 1016.18 1015.78 1015.89 1016.57 1017.73 1018.72 1019.45 1020.25 1021.09 1021.53 1022.15 1022.52 1022.70 1022.66 1022.42 1022.08 1021.93 1021.76 1021.37 1020.96 1020.79 1020.89 1021.10 1021.37 1021.52 1021.58 1021.82 1022.11 1022.31 1022.18 1022.04 1021.96 1021.80 1021.70 1021.58 1021.38 1021.13 1020.94 1020.81 1020.72
1019.39 1019.87 1020.35 1020.93 1021.76 1022.07 1020.53 1019.98 1018.07 1016.46 1015.46 1015.97 1017.32 1018.21 1019.05 1020.08 1020.72 1021.47 1022.19 1022.64 1022.99 1023.06 1023.09 1022.87 1022.70 1022.72 1022.55 1022.29 1022.16 1022.04 1022.07 1022.18 1022.19 1022.41 1022.44 1022.74 1022.92 1022.97 1022.86 1022.71 1022.55 1022.40 1022.29 1022.11 1021.98 1021.72 1021.60 1021.56 1021.47
1019.71 1020.62 1021.70 1022.42 1022.83 1021.48 1020.14 1020.13 1017.74 1016.16 1015.57 1015.84 1017.15 1018.53 1019.48 1020.40 1021.07 1021.89 1022.68 1023.10 1023.35 1023.56 1023.57 1023.45 1023.26 1023.33 1023.23 1023.12 1023.11 1023.09 1023.07 1023.12 1023.20 1023.30 1023.35 1023.43 1023.48 1023.54 1023.58 1023.33 1023.17 1023.00 1022.79 1022.55 1022.39 1022.30 1022.26 1022.24 1022.27
1019.76 1020.53 1021.23 1021.73 1022.48 1021.76 1020.53 1019.09 1016.65 1015.80 1015.67 1015.70 1016.85 1018.24 1019.60 1020.43 1021.17 1022.09 1022.64 1023.10 1023.45 1023.85 1023.77 1023.68 1023.74 1023.80 1023.75 1023.76 1023.90 1023.83 1023.79 1023.82 1023.93 1023.99 1024.02 1024.03 1024.01 1024.09 1024.00 1023.81 1023.56 1023.40 1023.18 1023.03 1022.85 1023.04 1022.92 1022.89 1022.83
1019.87 1020.24 1020.76 1021.60 1022.60 1022.25 1020.20 1018.56 1016.76 1016.00 1016.74 1016.82 1017.67 1018.96 1019.98 1020.71 1021.38 1022.14 1022.60 1023.05 1023.65 1024.13 1024.04 1023.92 1024.01 1024.22 1024.26 1024.28 1024.36 1024.40 1024.37 1024.43 1024.63 1024.70 1024.68 1024.60 1024.55 1024.30 1024.45 1024.19 1023.99 1023.89 1023.85 1023.70 1023.57 1023.60 1023.59 1023.58 1023.46
1019.35 1020.05 1020.92 1021.81 1022.57 1022.07 1020.29 1018.82 1017.44 1016.86 1016.70 1017.49 1018.48 1019.35 1020.17 1020.90 1021.55 1022.19 1022.61 1023.07 1023.68 1024.11 1024.17 1024.16 1024.24 1024.43 1024.53 1024.64 1024.68 1024.82 1024.90 1024.96 1025.06 1025.09 1025.16 1025.10 1025.00 1024.87 1024.74 1024.57 1024.48 1024.45 1024.48 1024.24 1024.02 1024.06 1023.95 1023.94 1023.97
1019.43 1019.74 1020.34 1020.80 1021.40 1021.25 1020.60 1018.87 1017.42 1017.07 1016.85 1017.54 1018.34 1019.09 1019.75 1020.63 1021.17 1021.71 1022.22 1022.61 1023.20 1023.68 1024.19 1024.47 1024.62 1024.80 1024.82 1024.82 1024.96 1025.04 1025.19 1025.29 1025.39 1025.52 1025.64 1025.55 1025.40 1025.32 1025.30 1025.25 1025.17 1025.23 1025.13 1024.99 1024.76 1024.53 1024.54 1024.46 1024.46
1019.00 1019.46 1019.94 1020.57 1021.13 1020.97 1020.24 1018.60 1016.99 1016.83 1016.87 1017.11 1017.92 1018.49 1019.39 1019.91 1020.47 1021.18 1021.79 1022.29 1023.01 1023.54 1023.90 1024.28 1024.65 1024.87 1024.98 1025.10 1025.21 1025.37 1025.52 1025.67 1025.85 1025.94 1025.92 1025.85 1025.72 1025.63 1025.70 1025.70 1025.95 1025.92 1025.83 1025.60 1025.42 1025.22 1025.08 1025.02 1024.91
Wind_Speed
12 10 2 5 6 6 2 4 6 4 4 1 4 13 10 4 4 5 4 8 12 11 9 9 9 10 10 9 8 7 7 7 6 6 8 10 10 10 11 11 9 8 8 10 12 9 8 7 8
8 7 5 2 5 4 2 4 9 6 4 5 11 6 7 4 3 6 4 5 12 12 9 8 10 10 9 8 8 6 6 6 6 5 5 7 8 9 10 10 9 6 9 11 11 9 8 3 8
10 5 3 4 3 5 6 4 8 3 4 3 4 5 5 2 3 4 5 5 9 10 10 10 12 10 9 9 8 7 5 5 4 5 3 5 5 9 10 9 9 7 6 9 9 8 9 8 9
4 6 5 6 3 6 9 8 9 6 3 5 7 8 5 1 3 6 7 6 10 8 10 9 11 10 9 8 8 7 5 4 4 3 3 7 5 9 10 9 9 9 7 4 7 6 7 7 8
4 3 3 4 4 3 4 8 8 6 5 5 5 3 4 2 8 8 7 6 10 7 8 9 11 10 8 7 7 6 4 4 4 4 7 7 6 7 9 10 8 8 6 6 4 4 4 4 4
5 3 4 3 4 5 3 3 5 5 5 6 7 5 3 4 7 7 6 7 8 10 9 9 10 10 9 8 7 6 5 4 4 4 4 2 5 5 8 10 11 10 9 9 5 4 3 2 2
3 4 3 1 4 3 5 3 3 7 7 1 7 6 4 4 6 6 6 7 7 8 8 6 8 7 8 7 7 7 7 6 5 4 4 4 3 2 5 6 9 10 9 9 8 6 5 4 4
3 4 4 0 6 4 6 3 7 7 1 2 6 6 5 5 6 6 6 7 8 7 7 7 7 7 6 6 9 8 7 7 6 6 5 5 4 4 5 6 6 8 9 7 8 8 7 7 7
5 5 2 4 7 5 6 5 2 3 6 3 3 5 8 10 9 6 5 4 5 5 7 7 7 7 7 7 7 8 7 7 7 5 6 5 3 5 6 6 8 9 8 9 10 10 10 9 8
4 4 5 2 1 7 5 6 6 4 4 3 5 6 8 8 6 7 6 7 6 7 7 7 7 7 7 5 6 6 6 5 5 5 6 4 5 5 5 7 9 8 8 9 9 10 10 7 4
1 5 3 4 5 3 7 4 1 8 3 6 10 9 6 5 7 6 5 5 8 7 4 8 8 8 7 5 5 3 3 3 4 6 6 5 4 4 3 2 3 3 6 3 5 5 4 5 4
1 2 3 2 5 4 3 3 4 4 5 5 8 7 5 4 2 2 2 1 2 2 4 7 7 7 7 4 4 6 4 4 4 5 6 4 3 4 4 3 4 4 3 5 5 3 5 6 6
2 3 5 3 7 5 4 3 1 3 4 3 5 6 5 2 4 3 2 1 2 3 3 0 5 7 6 6 4 4 5 5 5 5 5 4 4 4 4 4 4 4 4 4 4 4 4 5 6
2 4 3 2 3 3 3 4 5 4 6 6 2 4 3 4 7 4 4 5 3 4 4 2 2 5 5 6 6 5 4 5 4 5 4 5 3 4 4 4 4 4 4 4 4 5 5 5 4
4 3 5 1 2 2 5 6 8 8 7 7 5 3 4 7 7 8 8 8 7 4 5 7 4 2 2 2 4 4 5 5 5 5 7 6 5 5 5 4 4 4 4 4 4 4 4 4 5
3 4 0 5 8 3 9 8 7 11 10 9 7 6 6 8 5 5 6 6 7 8 8 7 7 8 7 5 3 3 4 4 5 5 5 7 6 6 4 4 3 2 3 3 4 4 3 4 4
0 3 6 4 7 5 5 5 6 4 5 7 6 6 6 5 5 7 7 8 9 9 9 10 8 9 8 7 4 3 2 2 4 4 4 7 8 6 4 3 2 2 3 3 3 3 3 3 3
5 4 4 6 5 4 4 8 10 7 6 8 7 8 8 6 4 7 8 10 11 10 10 9 8 10 8 6 4 2 1 2 4 3 3 4 3 2 3 3 3 2 2 3 3 3 2 3 4
4 1 5 2 1 2 5 8 10 11 7 9 9 8 7 7 8 7 9 8 9 10 10 9 8 8 5 3 3 3 2 4 6 7 8 9 10 9 9 6 5 4 3 3 4 3 3 3 3
2 1 2 2 5 3 6 13 12 14 13 11 11 9 8 7 7 7 9 10 10 9 8 8 8 7 6 3 2 1 3 5 5 5 10 12 12 11 9 8 7 7 5 8 8 6 2 2 1
3 4 2 1 3 2 3 10 5 8 16 13 7 5 2 14 11 7 8 9 9 9 8 7 7 8 8 9 3 2 5 4 6 7 8 9 11 11 10 10 8 7 6 5 5 7 6 3 2
2 4 4 1 4 3 5 7 6 5 4 6 7 8 10 11 8 7 8 8 7 6 7 7 8 9 10 12 9 10 7 6 5 7 7 8 11 11 10 9 8 6 5 7 6 5 3 4 4
3 1 7 3 2 3 3 2 10 5 6 5 7 9 8 8 9 8 8 8 6 6 6 6 7 9 10 11 10 7 9 6 5 5 8 9 9 10 10 10 8 8 6 6 6 6 7 5 3
4 4 4 3 3 3 10 8 6 3 5 4 6 7 9 9 9 8 7 7 6 6 6 6 7 7 8 9 10 10 9 7 6 7 6 5 5 6 9 8 7 7 7 6 5 5 7 6 6
6 5 2 1 2 7 2 4 8 4 3 8 10 8 9 8 8 8 7 6 5 6 5 5 6 7 7 8 9 8 8 7 7 5 5 5 4 4 6 7 7 6 6 7 5 7 8 7 7
7 6 5 7 4 3 1 6 6 5 2 7 9 10 9 9 7 7 7 6 6 5 5 6 6 6 6 7 7 6 7 4 5 6 4 4 3 4 5 5 6 6 8 8 8 7 7 8 6
6 10 3 3 1 3 5 5 8 6 5 7 12 9 8 8 8 8 7 7 6 4 4 6 6 6 6 6 5 6 6 7 6 6 5 4 5 6 6 6 6 8 9 9 7 7 8 7 6
3 4 1 2 3 5 4 3 6 6 7 6 7 7 7 6 7 7 7 7 5 5 5 6 5 6 6 6 5 5 5 6 6 6 6 6 6 6 6 7 7 9 10 9 8 7 8 8 6
5 3 4 4 4 4 1 5 5 3 6 8 7 8 8 8 9 8 7 7 8 7 6 5 5 5 5 5 5 5 5 6 6 6 5 6 6 6 6 6 8 10 10 10 9 9 10 9 8
6 4 5 4 4 3 3 7 6 6 7 9 7 7 8 8 10 8 9 9 7 7 7 6 6 5 4 5 5 5 6 6 6 6 6 5 6 6 6 6 10 10 10 10 10 9 8 8 9
Wind_Direction
314 305 291 40 53 68 109 33 104 74 52 76 39 90 106 79 71 145 223 102 128 131 137 133 133 128 128 126 125 118 112 106 98 97 95 105 103 99 99 94 84 81 90 85 83 73 65 72 107
312 314 36 73 86 86 10 133 86 105 147 126 106 106 61 73 70 109 76 131 143 141 147 136 136 134 138 139 137 136 125 118 108 93 98 117 119 112 110 104 99 80 86 85 72 52 31 36 135
303 182 74 97 105 152 125 135 121 99 79 138 96 74 69 15 92 115 169 145 135 142 140 142 142 143 147 151 154 152 149 128 122 115 134 136 152 144 133 117 107 75 59 57 60 53 46 97 111
329 358 7 79 64 342 128 155 137 136 43 80 112 78 64 284 102 146 146 154 117 126 126 143 144 148 153 158 163 162 159 155 141 134 159 154 147 137 142 131 128 115 100 99 71 76 68 81 101
29 60 38 88 79 72 100 139 137 147 116 84 117 115 103 89 123 125 153 154 128 140 139 145 148 151 159 162 163 168 174 170 153 136 129 140 146 144 151 151 145 131 122 115 107 102 98 95 93
7 76 45 143 181 143 74 71 118 105 125 83 84 105 120 123 105 159 171 144 139 145 148 151 157 162 170 171 172 175 180 169 161 161 132 126 157 169 176 174 168 160 152 154 149 143 138 148 165
83 71 227 48 191 106 151 102 82 131 126 101 163 104 153 113 160 157 157 122 124 133 145 154 161 172 175 181 184 186 188 185 179 179 160 142 146 181 191 180 189 176 177 176 175 179 185 196 216
90 91 320 181 182 190 176 84 111 105 162 147 121 155 179 196 162 141 135 147 141 153 156 176 169 170 182 182 193 192 194 196 196 198 205 201 202 216 223 202 204 189 177 201 187 194 206 217 227
26 65 244 255 168 194 177 130 49 111 123 81 92 120 155 163 162 152 169 175 164 179 179 178 173 177 182 185 196 191 194 200 208 215 218 214 226 242 238 222 209 208 213 197 200 204 210 216 230
90 123 220 308 298 169 137 110 139 95 114 74 85 107 155 160 164 170 186 205 201 200 203 188 174 182 191 179 169 181 192 192 205 209 217 210 218 226 228 221 226 209 214 226 224 221 224 221 223
254 189 290 347 29 39 130 99 153 120 220 195 181 175 157 163 169 181 214 197 201 223 197 197 183 186 190 202 156 175 186 191 203 209 215 215 215 227 200 202 195 209 228 240 244 247 239 223 222
252 337 64 358 14 39 38 114 122 125 166 145 137 153 139 81 2 266 152 95 125 67 162 204 211 186 192 188 175 175 179 188 201 208 216 203 202 212 211 209 210 216 219 228 232 238 240 234 229
96 307 68 86 44 68 31 48 114 272 267 4 133 118 126 109 295 235 197 70 227 227 255 117 194 213 199 177 190 188 184 187 199 211 204 204 221 219 218 208 204 218 223 217 232 233 241 236 239
30 255 147 92 51 51 46 310 34 280 282 297 288 166 177 203 247 243 213 221 244 239 182 109 17 212 214 194 193 195 183 199 191 193 210 204 215 218 221 224 232 226 211 214 221 225 233 243 248
42 31 346 189 135 352 103 297 237 244 266 259 239 203 274 256 263 219 227 220 183 112 50 13 340 83 124 244 218 201 207 192 190 196 192 209 206 221 229 220 225 232 231 240 228 231 231 241 244
83 38 186 271 167 192 96 264 280 270 209 233 247 247 279 267 236 283 299 83 58 63 58 41 23 12 358 327 280 237 218 203 197 197 188 190 216 208 216 226 241 253 257 244 236 231 250 250 245
318 189 213 291 169 146 141 254 271 66 165 230 244 256 260 297 311 85 73 75 57 50 37 36 27 16 358 334 313 291 259 214 221 212 187 193 201 207 205 204 220 308 295 278 249 264 236 254 266
190 215 232 199 239 164 205 246 282 293 260 237 235 245 251 270 287 99 67 67 59 48 43 32 24 13 356 334 323 326 357 17 28 38 37 62 67 241 236 240 236 256 264 275 276 258 247 242 258
102 163 231 129 233 119 246 263 254 275 252 243 241 240 237 239 107 83 71 61 62 46 44 30 23 5 9 348 348 0 21 52 50 44 45 56 48 34 35 25 8 330 296 303 304 271 262 269 237
218 11 278 56 166 142 279 270 253 242 242 225 230 228 225 113 95 81 70 62 56 48 37 25 17 4 352 329 285 249 117 71 76 74 61 57 51 40 42 36 27 17 22 31 24 3 306 265 304
187 193 258 67 357 312 330 293 298 258 237 237 227 210 146 138 125 100 74 62 51 43 33 29 16 8 3 350 327 123 103 69 63 57 63 54 54 45 39 38 33 30 34 29 20 15 8 328 329
199 234 237 16 64 231 93 286 305 276 201 181 166 114 110 111 99 98 86 66 60 42 39 36 27 21 14 8 24 53 69 83 50 64 69 63 49 41 32 30 29 30 28 29 18 7 5 8 6
241 141 176 152 208 356 262 191 273 238 243 193 123 122 119 116 110 93 88 87 67 53 47 39 36 34 22 27 29 47 67 65 59 55 62 55 48 40 28 25 22 24 22 18 19 14 28 25 37
143 77 62 70 90 294 214 170 269 240 198 113 118 131 116 109 102 98 97 91 76 55 55 51 46 39 34 36 34 45 58 57 56 44 52 47 49 38 27 22 23 23 19 16 9 20 37 28 39
126 117 130 248 229 229 336 166 248 251 135 150 154 144 137 128 125 129 126 111 89 69 59 71 56 47 42 44 41 38 52 57 60 54 55 51 44 37 23 21 24 24 17 14 17 32 41 36 40
178 175 169 199 204 260 298 230 254 217 165 118 144 133 133 134 138 143 145 135 119 104 93 85 70 60 51 55 47 40 45 55 53 52 56 54 46 53 24 24 33 27 27 26 39 39 36 36 42
186 216 215 101 9 80 224 290 320 282 96 109 126 133 145 149 153 153 143 130 136 143 119 115 102 83 70 72 63 49 49 55 57 46 41 45 35 51 32 31 36 39 43 39 43 49 39 38 34
164 166 140 353 167 237 281 238 233 327 209 141 143 153 168 166 152 159 148 146 149 157 137 115 113 108 97 81 76 69 61 60 58 51 43 45 44 40 36 37 38 52 43 38 40 45 34 37 29
153 215 225 149 161 174 224 262 217 102 102 158 170 178 174 177 182 179 176 169 166 158 149 131 116 108 97 97 88 80 70 66 64 61 39 41 43 38 37 26 52 53 46 35 35 36 31 29 33
226 206 202 140 235 229 155 261 220 141 122 121 150 167 184 190 192 187 181 171 169 167 158 155 144 127 113 108 96 82 76 72 66 62 55 44 50 36 32 29 66 54 46 38 33 33 22 26 31